Regional Weather Roundup
Issued by NWS

Home | Current Version | Previous Version | Text Only | Print | Product List | Glossary Off
Versions: 1 2 3 4 5 6 7 8 9 10 11 12 13 14 15 16 17 18 19 20 21 22 23 24 25 26 27 28

000
ASUS45 KBOU 170810
RWRCO

WEATHER ROUNDUP FOR COLORADO
NATIONAL WEATHER SERVICE DENVER/BOULDER CO
100 AM MST SUN DEC 17 2017

NOTE: "FAIR" INDICATES FEW OR NO CLOUDS BELOW 12000 FEET WITH NO
SIGNIFICANT WEATHER AND/OR OBSTRUCTIONS TO VISIBILITY.

COZ001>005-013-030-031-170900-
...NORTHWEST COLORADO...

CITY           SKY/WX    TMP DP  RH WIND       PRES   REMARKS
CRAIG          FAIR       9   6  88 CALM      29.91R
HAYDEN         FAIR      21  12  68 CALM      29.91R
MEEKER         FAIR      18   9  68 CALM      29.90R
RABBIT EARS PA FAIR      18   0  45 W8        29.86S WCI   7
STEAMBOAT SPGS FAIR      19  13  77 CALM      29.88R
WALDEN         FAIR       5   0  78 SE10      29.87F WCI -10
$$

COZ006>008-011-170900-
...WEST CENTRAL VALLEYS...

CITY           SKY/WX    TMP DP  RH WIND       PRES   REMARKS
GRAND JUNCTION FAIR      22   6  50 NE3       29.91S
MONTROSE       FAIR      24   8  50 SE8       29.94R WCI  15
EAGLE          FAIR      13   8  81 CALM      29.94R
RIFLE          FAIR      21   8  57 CALM      29.92R
DELTA          FAIR      29   5  35 CALM      29.93S
NUCLA          FAIR      28  -2  26 E9        29.94S WCI  20
$$

COZ017>023-064>068-170900-
...SOUTHWEST COLORADO...

CITY           SKY/WX    TMP DP  RH WIND       PRES   REMARKS
DURANGO        MOCLDY    28  10  46 E6        29.88R WCI  22
CORTEZ         FAIR      23   6  48 E7        29.90S WCI  15
PAGOSA SPRINGS MOCLDY    23   5  46 CALM      29.90S
TELLURIDE      MOCLDY    29  -4  24 CALM      29.93R
WOLF CREEK PAS FAIR      18   1  49 SW12      29.97S WCI   5
$$

COZ009-010-012-014-032>034-037-058>063-170900-
...CENTRAL COLORADO...

CITY           SKY/WX    TMP DP  RH WIND       PRES   REMARKS
ASPEN          FAIR      18   8  65 S5        29.87R WCI  11
BUENA VISTA    FAIR      14   8  77 W5        29.88S WCI   7
COPPER MTN     NOT AVBL
BERTHOUD PASS  MOCLDY    19   9  63 W15G29    29.89S WCI   5
COTTONWOOD PAS FAIR      30   9  40 CALM      29.88S
GUNNISON       FAIR      17  10  74 E3        29.91R
KREMMLING      FAIR       9   3  78 CALM      29.91S
LEADVILLE      FAIR      16   3  56 E6        29.86S WCI   7
MONARCH PASS   FAIR      21  -4  33 W21       30.01S WCI   6
SALIDA         FAIR      24   9  53 CALM      29.95S
SUNLIGHT       FAIR      18  -4  38 SW8       29.93S WCI   7
WILKERSON PASS FAIR      21   1  42 W8        29.89F WCI  12
$$

COZ069>075-170900-
...SAN LUIS VALLEY/SANGRE DE CRISTO MOUNTAINS...

CITY           SKY/WX    TMP DP  RH WIND       PRES   REMARKS
ALAMOSA        FAIR      13   9  84 E3        29.87R
DEL NORTE      FAIR      17   7  63 W10       29.87S WCI   5
LA VETA PASS   FAIR      23   5  46 SW25G31     N/A  WCI   7
SAGUACHE       FAIR      21   9  58 NW13      29.87S WCI   9
$$

COZ035-036-038>040-170900-
...NORTHERN COLORADO FRONT RANGE...

CITY           SKY/WX    TMP DP  RH WIND       PRES   REMARKS
DENVER INTL AP FOG       28  26  92 NE3       29.93S VSB 3/4
DMNS CITY PARK NOT AVBL
AURORA         CLOUDY    28  27  99 NE3       29.93S
FRONT RANGE AP CLOUDY    30  29  96 CALM      29.93F FOG
ERIE MUNI ARPT CLOUDY    31  29  90 CALM      30.00F
BOULDER MUN AP CLOUDY    32  28  86 CALM      29.93F
CENTENNIAL     CLOUDY    28  26  92 N5        29.92R WCI  23
BROOMFIELD     CLOUDY    32  28  86 NE3       29.93F
FORT COLLINS   MIX PCPN  30  28  93 NE5       29.94F FOG     WCI  25
LONGMONT       CLOUDY    33  28  82 NE5       29.96F WCI  29
$$

COZ041-046-047-076>085-087-088-170900-
...PIKES PEAK/PALMER DIVIDE AND SOUTHERN FOOTHILLS...

CITY           SKY/WX    TMP DP  RH WIND       PRES   REMARKS
COLO. SPRINGS  FAIR      30  20  66 CALM      29.88F
A. F. ACADEMY  FAIR      25  19  76 NW8       29.86F WCI  16
SCHRIEVER AFB  FAIR      24  20  84 CALM      29.89S
CHEYENNE MTN   FAIR      29  16  58 S6        29.81F WCI  23
ELLICOTT       CLOUDY   N/A N/A N/A NE14      29.87F
FALCON         FAIR      22  18  87 N5        29.88S WCI  15
FORT CARSON    MOCLDY    28  19  67 NW5       29.86F WCI  23
LIMON          CLOUDY    28  26  92 N8        29.91S WCI  20
MONUMENT HILL  FOG       23  23 100 NW3       29.89S VSB 1/4
CANON CITY     FAIR      32  18  55 CALM      29.89S
WALSENBURG     FAIR      18  14  86 CALM      29.89S
TRINIDAD       FAIR      20  13  74 W6        29.90S WCI  12
$$

COZ042>045-048>051-090-091-170900-
...NORTHEAST COLORADO...

CITY           SKY/WX    TMP DP  RH WIND       PRES   REMARKS
GREELEY ARPT   MIX PCPN  31  30  96 NE3       29.96F FOG
AKRON          CLOUDY    30  28  92 NE8       29.94R FOG     WCI  22
BURLINGTON     CLOUDY    31  28  89 NE18G26   29.91S WCI  19
WRAY           CLOUDY    34  32  93 NE8       29.95S WCI  27
YUMA           CLOUDY    32  30  93 NE10      29.94R FOG     WCI  24
STERLING       CLOUDY    32  32 100 NE6       29.95S FOG     WCI  26
HOLYOKE        CLOUDY    34  32  93 NE9       29.96R WCI  26
FORT MORGAN    CLOUDY    31  29  93 NE8       29.95F WCI  23
$$

COZ086-089-092>099-170900-
...SOUTHEAST COLORADO...

CITY           SKY/WX    TMP DP  RH WIND       PRES   REMARKS
PUEBLO         FAIR      24  18  77 VRB3      29.91S
LA JUNTA       CLOUDY    31  26  82 NW5       29.91S WCI  26
LAMAR          CLOUDY    32  26  78 NE15G24   29.87R WCI  22
SPRINGFIELD      N/A     25  23  92 NW16G23   29.84R WCI  12
$$




USA.gov is the U.S. government's official web portal to all federal, state and local government web resources and services.